Slidell, LA

1:54 AM CDT on September 25, 2016 (GMT -0500)
Slidell

Weather History for KASD - June, 2013

Change the Weather History Date:

Sunday, June 9, 2013

  Actual Average (KNEW) Record (KNEW)
Temperature  
Mean Temperature 80 °F 81 °F  
Max Temperature 87 °F 89 °F 95 °F (2006)
Min Temperature 73 °F 73 °F 63 °F (1983)
Degree Days  
Heating Degree Days 0 0  
Month to date heating degree days 0  
Since 1 June heating degree days 0  
Since 1 July heating degree days 1280  
Cooling Degree Days 15 16  
Month to date cooling degree days 138  
Year to date cooling degree days 757  
Since 1 June cooling degree days 138  
Growing Degree Days 30 (Base 50)    
Moisture  
Dew Point 74 °F    
Average Humidity 84    
Maximum Humidity 100    
Minimum Humidity 62    
Precipitation  
Precipitation 0.11 in 0.25 in 4.10 in (1988)
Month to date precipitation 2.19  
Year to date precipitation 26.43  
Snow  
Snow 0.00 in - - ()
Month to date snowfall  
Since 1 June snowfall  
Since 1 July snowfall  
Snow Depth -    
Sea Level Pressure  
Sea Level Pressure 29.95 in    
Wind  
Wind Speed 5 mph (SSE)    
Max Wind Speed 16 mph    
Max Gust Speed 21 mph    
Visibility 10 miles    
Events Rain , Thunderstorm    
T = Trace of Precipitation, MM = Missing Value Source: NWS Daily Summary

Daily Weather History Graph

Daily Weather History Graph

Search for Another Location

Airport or City:

Trip Planner

Search our weather history database for the weather conditions in past years. The results will help you decide how hot, cold, wet, or windy it might be!

Date:

Astronomy

Jun. 09, 2013 Rise Set
Actual Time 5:56 AM CDT 8:00 PM CDT
Civil Twilight 5:29 AM CDT 8:28 PM CDT
Nautical Twilight 4:56 AM CDT 9:01 PM CDT
Astronomical Twilight 4:20 AM CDT 9:37 PM CDT
Moon 6:49 AM CDT (6/9) 8:52 PM CDT (6/9)
Length of Visible Light 14h 58m
Length of Day
14h 03m
New Moon, 1% of the Moon is Illuminated
Jun 9
New Moon
Jun 16
First Quarter
Jun 23
Full
Jun 29
Last Quarter
Jul 8
New

Hourly Weather History & Observations

Time (CDT) Temp. Heat Index Dew Point Humidity Pressure Visibility Wind Dir Wind Speed Gust Speed Precip Events Conditions
12:53 AM 73.0 °F - 72.0 °F 96% 29.96 in 10.0 mi SE 6.9 mph - N/A   Clear
1:53 AM 75.0 °F - 73.0 °F 94% 29.96 in 10.0 mi SE 4.6 mph - 0.01 in   Clear
2:53 AM 73.0 °F - 72.0 °F 96% 29.96 in 10.0 mi ESE 3.5 mph - N/A   Clear
3:53 AM 75.0 °F - 73.0 °F 94% 29.95 in 10.0 mi SE 3.5 mph - N/A   Clear
4:53 AM 73.9 °F - 72.0 °F 93% 29.95 in 10.0 mi SE 4.6 mph - 0.00 in Rain Light Rain
5:53 AM 73.9 °F - 73.0 °F 97% 29.96 in 10.0 mi Calm Calm - 0.01 in Rain Light Rain
6:53 AM 73.9 °F - 73.0 °F 97% 29.96 in 10.0 mi Calm Calm - 0.02 in   Mostly Cloudy
7:23 AM 75.2 °F - 75.2 °F 100% 29.96 in 10.0 mi Calm Calm - N/A   Mostly Cloudy
7:38 AM 75.2 °F - 75.2 °F 100% 29.97 in 10.0 mi ENE 3.5 mph - N/A   Mostly Cloudy
7:53 AM 77.0 °F - 75.0 °F 94% 29.98 in 10.0 mi East 3.5 mph - N/A   Mostly Cloudy
8:53 AM 79.0 °F - 77.0 °F 94% 29.97 in 10.0 mi Calm Calm - 0.03 in Rain Light Rain
9:02 AM 80.6 °F 87.1 °F 77.0 °F 89% 29.97 in 10.0 mi East 3.5 mph - N/A   Mostly Cloudy
9:22 AM 80.6 °F 87.1 °F 77.0 °F 89% 29.96 in 10.0 mi SSE 4.6 mph - N/A   Mostly Cloudy
9:47 AM 80.6 °F 87.1 °F 77.0 °F 89% 29.96 in 10.0 mi South 5.8 mph - 0.04 in Rain Light Rain
9:53 AM 81.0 °F 87.3 °F 75.9 °F 85% 29.96 in 10.0 mi South 4.6 mph - 0.04 in   Scattered Clouds
10:53 AM 82.0 °F 90.2 °F 77.0 °F 85% 29.95 in 10.0 mi South 5.8 mph - N/A   Clear
11:40 AM 84.2 °F 92.3 °F 75.2 °F 74% 29.95 in 10.0 mi SSE 8.1 mph - N/A   Mostly Cloudy
11:53 AM 84.9 °F 93.3 °F 75.0 °F 72% 29.95 in 10.0 mi SE 8.1 mph - N/A   Scattered Clouds
12:53 PM 87.1 °F 95.4 °F 73.9 °F 65% 29.96 in 10.0 mi South 10.4 mph - N/A   Partly Cloudy
1:01 PM 87.8 °F 95.6 °F 73.4 °F 62% 29.95 in 10.0 mi South 12.7 mph - N/A Thunderstorm Partly Cloudy
1:26 PM 86.0 °F 93.4 °F 73.4 °F 66% 29.93 in 10.0 mi South 12.7 mph - N/A Thunderstorm Partly Cloudy
1:45 PM 84.2 °F 89.6 °F 71.6 °F 66% 29.94 in 10.0 mi South 15.0 mph - N/A Thunderstorm Scattered Clouds
1:53 PM 84.9 °F 90.7 °F 72.0 °F 65% 29.94 in 10.0 mi South 11.5 mph - N/A Thunderstorm Scattered Clouds
2:06 PM 84.2 °F 90.9 °F 73.4 °F 70% 29.94 in 10.0 mi South 16.1 mph 20.7 mph N/A   Mostly Cloudy
2:53 PM 82.0 °F 87.4 °F 73.0 °F 74% 29.95 in 10.0 mi South 16.1 mph - 0.00 in Rain Light Rain
3:53 PM 80.1 °F 84.2 °F 73.0 °F 79% 29.93 in 10.0 mi South 8.1 mph - 0.00 in   Clear
4:53 PM 81.0 °F 86.7 °F 75.0 °F 82% 29.91 in 10.0 mi South 6.9 mph - N/A   Mostly Cloudy
5:04 PM 80.6 °F 85.4 °F 73.4 °F 79% 29.91 in 10.0 mi Calm Calm - N/A   Scattered Clouds
5:49 PM 80.6 °F 85.4 °F 73.4 °F 79% 29.92 in 10.0 mi South 3.5 mph - N/A   Mostly Cloudy
5:53 PM 81.0 °F 86.2 °F 73.9 °F 79% 29.92 in 10.0 mi South 4.6 mph - N/A   Mostly Cloudy
6:17 PM 80.6 °F 85.4 °F 73.4 °F 79% 29.93 in 10.0 mi SSE 5.8 mph - N/A   Partly Cloudy
6:53 PM 81.0 °F 86.2 °F 73.9 °F 79% 29.94 in 10.0 mi South 4.6 mph - N/A   Clear
7:53 PM 79.0 °F - 75.9 °F 90% 29.94 in 10.0 mi SSE 5.8 mph - N/A   Clear
8:53 PM 78.1 °F - 75.9 °F 93% 29.95 in 10.0 mi Calm Calm - N/A   Clear
9:53 PM 78.1 °F - 75.9 °F 93% 29.98 in 10.0 mi Calm Calm - N/A   Clear
10:53 PM 77.0 °F - 75.0 °F 94% 29.97 in 10.0 mi South 5.8 mph - N/A   Clear
11:53 PM 79.0 °F - 75.0 °F 88% 29.96 in 10.0 mi South 3.5 mph - N/A   Clear